AVA9489 SKLT-SKBO

Flight info

Callsign AVA9489
Flight time 1h 34m
Altitude 38000
Route MIKOX3B MIKOX DCT VVC B689 EGEPI EGEPI5E
Aircraft A320/M-SDE3FGHIRWY/LB1

Departure

Time 2026-05-06 12:20
Airport Alfredo Vásquez Cobo International Airport (SKLT)

Arrival

Time 2026-05-06 13:55
Airport El Dorado International Airport (SKBO)
Time Latitude Longitude Altitude Speed Heading
2026-05-06 11:56 -4.19732 -69.94200 277 ft 0 kts 110°
2026-05-06 12:10 -4.19725 -69.94222 277 ft 4 kts 95°
2026-05-06 12:10 -4.19728 -69.94247 277 ft 4 kts 54°
2026-05-06 12:11 -4.19739 -69.94257 285 ft 0 kts 20°
2026-05-06 12:14 -4.19735 -69.94256 279 ft 1 kts 14°
2026-05-06 12:14 -4.19726 -69.94260 279 ft 2 kts 329°
2026-05-06 12:14 -4.19721 -69.94277 280 ft 3 kts 276°
2026-05-06 12:15 -4.19719 -69.94300 277 ft 4 kts 276°
2026-05-06 12:15 -4.19712 -69.94326 277 ft 5 kts 292°
2026-05-06 12:15 -4.19687 -69.94364 282 ft 8 kts 303°
2026-05-06 12:15 -4.19634 -69.94389 279 ft 11 kts 13°
2026-05-06 12:16 -4.19548 -69.94357 279 ft 16 kts 20°
2026-05-06 12:16 -4.19430 -69.94314 278 ft 21 kts 20°
2026-05-06 12:16 -4.19278 -69.94259 276 ft 25 kts 22°
2026-05-06 12:16 -4.19103 -69.94190 276 ft 29 kts 20°
2026-05-06 12:17 -4.18911 -69.94118 275 ft 30 kts 21°
2026-05-06 12:17 -4.18719 -69.94044 275 ft 30 kts 21°
2026-05-06 12:17 -4.18524 -69.93970 276 ft 30 kts 21°
2026-05-06 12:17 -4.18336 -69.93897 277 ft 28 kts 21°
2026-05-06 12:18 -4.18175 -69.93837 282 ft 20 kts 15°
2026-05-06 12:18 -4.18091 -69.93830 284 ft 6 kts 54°
2026-05-06 12:18 -4.18106 -69.93808 279 ft 3 kts 179°
2026-05-06 12:18 -4.18118 -69.93815 279 ft 0 kts 200°
2026-05-06 12:19 -4.18165 -69.93832 279 ft 33 kts 200°
2026-05-06 12:20 -4.18652 -69.94016 275 ft 111 kts 201°
2026-05-06 12:20 -4.19568 -69.94360 341 ft 163 kts 200°
2026-05-06 12:20 -4.20280 -69.94624 755 ft 164 kts 200°
2026-05-06 12:20 -4.21354 -69.95027 1487 ft 164 kts 201°
2026-05-06 12:21 -4.22414 -69.95431 2142 ft 168 kts 201°
2026-05-06 12:21 -4.23984 -69.96039 2551 ft 195 kts 201°
2026-05-06 12:21 -4.25284 -69.96551 2973 ft 205 kts 207°
2026-05-06 12:21 -4.26011 -69.97173 3317 ft 207 kts 238°
2026-05-06 12:22 -4.26284 -69.98553 3852 ft 206 kts 284°
2026-05-06 12:22 -4.25671 -69.99835 4415 ft 205 kts 302°
2026-05-06 12:22 -4.24986 -70.01099 4944 ft 208 kts 298°
2026-05-06 12:22 -4.24343 -70.02412 5454 ft 211 kts 297°
2026-05-06 12:23 -4.23717 -70.03731 5966 ft 213 kts 296°
2026-05-06 12:23 -4.23077 -70.05083 6489 ft 216 kts 296°
2026-05-06 12:23 -4.22429 -70.06448 6967 ft 219 kts 296°
2026-05-06 12:23 -4.21769 -70.07831 7493 ft 221 kts 296°
2026-05-06 12:24 -4.20893 -70.09082 8021 ft 222 kts 320°
2026-05-06 12:24 -4.19544 -70.09813 8493 ft 226 kts 347°
2026-05-06 12:24 -4.17917 -70.09854 8684 ft 247 kts 10°
2026-05-06 12:24 -4.16135 -70.09573 8987 ft 271 kts 10°
2026-05-06 12:25 -4.14197 -70.09273 9421 ft 289 kts 10°
2026-05-06 12:25 -4.12186 -70.08970 10110 ft 296 kts
2026-05-06 12:25 -4.10081 -70.08626 10417 ft 318 kts 15°
2026-05-06 12:25 -4.08007 -70.07704 10697 ft 335 kts 35°
2026-05-06 12:26 -4.06168 -70.06223 11325 ft 343 kts 42°
2026-05-06 12:26 -4.04333 -70.04682 12059 ft 347 kts 37°
2026-05-06 12:26 -4.02134 -70.03652 12729 ft 355 kts 15°
2026-05-06 12:26 -3.99656 -70.03521 13387 ft 363 kts 353°
2026-05-06 12:27 -3.97154 -70.03991 14023 ft 367 kts 351°
2026-05-06 12:27 -3.94631 -70.04482 14618 ft 371 kts 351°
2026-05-06 12:27 -3.92087 -70.04977 15210 ft 374 kts 351°
2026-05-06 12:27 -3.89511 -70.05416 15790 ft 376 kts 358°
2026-05-06 12:28 -3.86905 -70.05245 16338 ft 377 kts 10°
2026-05-06 12:28 -3.84292 -70.04884 16917 ft 380 kts
2026-05-06 12:28 -3.81656 -70.04537 17481 ft 383 kts
2026-05-06 12:28 -3.79030 -70.04202 18028 ft 387 kts
2026-05-06 12:29 -3.76345 -70.03865 18542 ft 390 kts
2026-05-06 12:29 -3.73636 -70.03524 19011 ft 393 kts
2026-05-06 12:29 -3.70914 -70.03176 19485 ft 396 kts
2026-05-06 12:29 -3.68172 -70.02822 19958 ft 398 kts
2026-05-06 12:30 -3.65415 -70.02464 20424 ft 401 kts
2026-05-06 12:30 -3.62640 -70.02099 20879 ft 403 kts
2026-05-06 12:30 -3.59850 -70.01729 21321 ft 406 kts
2026-05-06 12:30 -3.57041 -70.01359 21787 ft 408 kts
2026-05-06 12:31 -3.54216 -70.00990 22230 ft 410 kts
2026-05-06 12:31 -3.51414 -70.00622 22660 ft 413 kts
2026-05-06 12:31 -3.48553 -70.00250 23089 ft 415 kts
2026-05-06 12:31 -3.45678 -69.99876 23509 ft 418 kts
2026-05-06 12:32 -3.42786 -69.99501 23876 ft 420 kts
2026-05-06 12:32 -3.39872 -69.99138 24223 ft 423 kts
2026-05-06 12:32 -3.36921 -69.99127 24563 ft 427 kts 356°
2026-05-06 12:32 -3.33985 -69.99666 24915 ft 432 kts 346°
2026-05-06 12:33 -3.31170 -70.00751 25264 ft 436 kts 337°
2026-05-06 12:33 -3.28413 -70.02030 25609 ft 438 kts 337°
2026-05-06 12:33 -3.25640 -70.03309 25960 ft 440 kts 337°
2026-05-06 12:33 -3.22855 -70.04590 26293 ft 441 kts 337°
2026-05-06 12:34 -3.20057 -70.05869 26617 ft 443 kts 337°
2026-05-06 12:34 -3.17242 -70.07150 26930 ft 446 kts 337°
2026-05-06 12:34 -3.14413 -70.08440 27250 ft 448 kts 337°
2026-05-06 12:34 -3.11570 -70.09743 27676 ft 450 kts 337°
2026-05-06 12:35 -3.08714 -70.11057 28064 ft 453 kts 337°
2026-05-06 12:35 -3.05843 -70.12381 28384 ft 455 kts 337°
2026-05-06 12:35 -3.02999 -70.13689 28686 ft 457 kts 337°
2026-05-06 12:35 -3.00100 -70.15019 28975 ft 459 kts 337°
2026-05-06 12:36 -2.97189 -70.16351 29276 ft 461 kts 337°
2026-05-06 12:36 -2.94267 -70.17686 29553 ft 463 kts 337°
2026-05-06 12:36 -2.91332 -70.19025 29823 ft 464 kts 337°
2026-05-06 12:36 -2.88382 -70.20372 30088 ft 466 kts 337°
2026-05-06 12:37 -2.85425 -70.21720 30307 ft 468 kts 337°
2026-05-06 12:37 -2.82452 -70.23077 30518 ft 470 kts 337°
2026-05-06 12:37 -2.79471 -70.24445 30747 ft 472 kts 337°
2026-05-06 12:37 -2.76480 -70.25819 30981 ft 473 kts 337°
2026-05-06 12:38 -2.73486 -70.27192 31215 ft 474 kts 337°
2026-05-06 12:38 -2.70484 -70.28569 31486 ft 474 kts 337°
2026-05-06 12:38 -2.67485 -70.29943 31834 ft 473 kts 337°
2026-05-06 12:38 -2.64499 -70.31313 32168 ft 472 kts 337°
2026-05-06 12:39 -2.61516 -70.32677 32490 ft 471 kts 337°
2026-05-06 12:39 -2.58541 -70.34036 32836 ft 469 kts 337°
2026-05-06 12:39 -2.55572 -70.35389 33166 ft 468 kts 337°
2026-05-06 12:39 -2.52611 -70.36740 33510 ft 467 kts 337°
2026-05-06 12:40 -2.49658 -70.38092 33838 ft 467 kts 337°
2026-05-06 12:40 -2.46700 -70.39450 34135 ft 467 kts 337°
2026-05-06 12:40 -2.43750 -70.40802 34421 ft 466 kts 337°
2026-05-06 12:40 -2.40803 -70.42149 34718 ft 465 kts 338°
2026-05-06 12:41 -2.37865 -70.43492 35013 ft 464 kts 337°
2026-05-06 12:41 -2.34967 -70.44820 35297 ft 463 kts 337°
2026-05-06 12:41 -2.32044 -70.46158 35590 ft 461 kts 338°
2026-05-06 12:41 -2.29126 -70.47491 35869 ft 460 kts 338°
2026-05-06 12:42 -2.26216 -70.48821 36142 ft 459 kts 337°
2026-05-06 12:42 -2.23314 -70.50150 36402 ft 458 kts 337°
2026-05-06 12:42 -2.20418 -70.51480 36660 ft 457 kts 337°
2026-05-06 12:42 -2.17527 -70.52808 36918 ft 456 kts 337°
2026-05-06 12:43 -2.14634 -70.54132 37169 ft 456 kts 338°
2026-05-06 12:43 -2.11749 -70.55445 37396 ft 455 kts 337°
2026-05-06 12:43 -2.08871 -70.56759 37627 ft 455 kts 337°
2026-05-06 12:43 -2.05994 -70.58075 37865 ft 454 kts 337°
2026-05-06 12:44 -2.03123 -70.59388 38039 ft 454 kts 337°
2026-05-06 12:44 -2.00253 -70.60700 38067 ft 453 kts 337°
2026-05-06 12:44 -1.94560 -70.63301 38066 ft 452 kts 337°
2026-05-06 12:45 -1.88840 -70.65917 38065 ft 452 kts 337°
2026-05-06 12:46 -1.80255 -70.69836 38066 ft 452 kts 337°
2026-05-06 12:46 -1.74526 -70.72451 38065 ft 453 kts 338°
2026-05-06 12:47 -1.68795 -70.75070 38069 ft 453 kts 337°
2026-05-06 12:47 -1.63050 -70.77700 38072 ft 454 kts 337°
2026-05-06 12:48 -1.57341 -70.80312 38073 ft 454 kts 337°
2026-05-06 12:48 -1.51588 -70.82944 38076 ft 454 kts 337°
2026-05-06 12:49 -1.45838 -70.85568 38078 ft 454 kts 337°
2026-05-06 12:49 -1.40090 -70.88193 38070 ft 455 kts 338°
2026-05-06 12:50 -1.34329 -70.90827 38068 ft 455 kts 338°
2026-05-06 12:50 -1.28557 -70.93461 38068 ft 456 kts 338°
2026-05-06 12:51 -1.22789 -70.96099 38070 ft 456 kts 338°
2026-05-06 12:51 -1.17011 -70.98740 38073 ft 456 kts 338°
2026-05-06 12:52 -1.11240 -71.01377 38074 ft 456 kts 338°
2026-05-06 12:52 -1.05466 -71.04016 38075 ft 456 kts 338°
2026-05-06 12:53 -0.99688 -71.06659 38074 ft 456 kts 338°
2026-05-06 12:53 -0.93941 -71.09279 38077 ft 456 kts 338°
2026-05-06 12:54 -0.88158 -71.11919 38075 ft 456 kts 338°
2026-05-06 12:54 -0.82380 -71.14558 38081 ft 456 kts 338°
2026-05-06 12:55 -0.76602 -71.17194 38085 ft 457 kts 338°
2026-05-06 12:55 -0.70827 -71.19841 38082 ft 457 kts 338°
2026-05-06 12:56 -0.65044 -71.22476 38082 ft 457 kts 338°
2026-05-06 12:56 -0.59258 -71.25124 38085 ft 457 kts 338°
2026-05-06 12:57 -0.53476 -71.27768 38085 ft 457 kts 338°
2026-05-06 12:57 -0.47693 -71.30400 38089 ft 457 kts 338°
2026-05-06 12:58 -0.41911 -71.33037 38090 ft 457 kts 338°
2026-05-06 12:58 -0.36126 -71.35683 38090 ft 457 kts 338°
2026-05-06 12:59 -0.30378 -71.38309 38090 ft 457 kts 338°
2026-05-06 12:59 -0.24588 -71.40943 38090 ft 457 kts 338°
2026-05-06 13:00 -0.18802 -71.43584 38090 ft 457 kts 338°
2026-05-06 13:00 -0.13024 -71.46231 38091 ft 457 kts 338°
2026-05-06 13:01 -0.07240 -71.48875 38093 ft 457 kts 338°
2026-05-06 13:01 -0.01490 -71.51497 38092 ft 457 kts 338°
2026-05-06 13:02 0.04295 -71.54134 38086 ft 457 kts 338°
2026-05-06 13:02 0.10088 -71.56784 38087 ft 458 kts 337°
2026-05-06 13:03 0.15876 -71.59431 38082 ft 458 kts 338°
2026-05-06 13:03 0.21675 -71.62078 38083 ft 458 kts 338°
2026-05-06 13:04 0.27475 -71.64725 38083 ft 458 kts 338°
2026-05-06 13:04 0.33279 -71.67381 38084 ft 458 kts 337°
2026-05-06 13:05 0.39043 -71.70011 38090 ft 458 kts 338°
2026-05-06 13:05 0.44847 -71.72656 38086 ft 459 kts 338°
2026-05-06 13:06 0.50658 -71.75303 38085 ft 459 kts 338°
2026-05-06 13:06 0.56462 -71.77959 38085 ft 459 kts 337°
2026-05-06 13:07 0.62279 -71.80621 38083 ft 459 kts 338°
2026-05-06 13:07 0.68091 -71.83272 38084 ft 459 kts 337°
2026-05-06 13:08 0.72918 -71.85477 38088 ft 459 kts 338°
2026-05-06 13:08 0.78734 -71.88134 38078 ft 460 kts 337°
2026-05-06 13:09 0.84558 -71.90799 38082 ft 461 kts 337°
2026-05-06 13:09 0.90387 -71.93458 38081 ft 461 kts 337°
2026-05-06 13:10 0.96220 -71.96110 38086 ft 460 kts 337°
2026-05-06 13:10 1.02052 -71.98776 38089 ft 460 kts 337°
2026-05-06 13:11 1.07875 -72.01438 38088 ft 460 kts 337°
2026-05-06 13:11 1.13698 -72.04102 38089 ft 460 kts 336°
2026-05-06 13:12 1.19523 -72.06769 38092 ft 460 kts 337°
2026-05-06 13:12 1.25354 -72.09423 38092 ft 460 kts 337°
2026-05-06 13:13 1.31186 -72.12080 38090 ft 460 kts 336°
2026-05-06 13:13 1.37010 -72.14749 38089 ft 460 kts 336°
2026-05-06 13:14 1.42837 -72.17413 38088 ft 460 kts 337°
2026-05-06 13:14 1.48675 -72.20078 38086 ft 461 kts 336°
2026-05-06 13:15 1.54468 -72.22734 38079 ft 461 kts 336°
2026-05-06 13:15 1.60310 -72.25400 38080 ft 462 kts 336°
2026-05-06 13:16 1.66156 -72.28066 38081 ft 462 kts 336°
2026-05-06 13:16 1.71996 -72.30735 38086 ft 462 kts 336°
2026-05-06 13:17 1.77845 -72.33409 38092 ft 462 kts 336°
2026-05-06 13:17 1.83696 -72.36085 38091 ft 462 kts 336°
2026-05-06 13:18 1.89543 -72.38760 38091 ft 462 kts 336°
2026-05-06 13:18 1.95390 -72.41435 38089 ft 462 kts 336°
2026-05-06 13:19 2.01202 -72.44091 38083 ft 462 kts 336°
2026-05-06 13:19 2.07061 -72.46772 38084 ft 463 kts 336°
2026-05-06 13:20 2.12916 -72.49452 38088 ft 463 kts 336°
2026-05-06 13:20 2.18768 -72.52135 38090 ft 463 kts 336°
2026-05-06 13:21 2.24633 -72.54814 38090 ft 463 kts 336°
2026-05-06 13:21 2.30496 -72.57492 38088 ft 463 kts 336°
2026-05-06 13:22 2.36355 -72.60173 38092 ft 463 kts 336°
2026-05-06 13:22 2.42215 -72.62857 38092 ft 463 kts 336°
2026-05-06 13:23 2.48072 -72.65530 38097 ft 463 kts 336°
2026-05-06 13:23 2.53925 -72.68207 38096 ft 462 kts 336°
2026-05-06 13:24 2.59774 -72.70886 38101 ft 462 kts 336°
2026-05-06 13:24 2.65620 -72.73558 38102 ft 462 kts 336°
2026-05-06 13:25 2.71463 -72.76239 38106 ft 461 kts 336°
2026-05-06 13:25 2.77263 -72.78892 38118 ft 461 kts 336°
2026-05-06 13:26 2.83103 -72.81567 38144 ft 461 kts 336°
2026-05-06 13:26 2.88940 -72.84242 38143 ft 461 kts 336°
2026-05-06 13:27 2.94786 -72.86918 38142 ft 462 kts 336°
2026-05-06 13:27 3.00638 -72.89595 38137 ft 462 kts 336°
2026-05-06 13:28 3.06498 -72.92274 38146 ft 463 kts 336°
2026-05-06 13:28 3.12363 -72.94958 38149 ft 464 kts 336°
2026-05-06 13:29 3.18230 -72.97644 38168 ft 463 kts 336°
2026-05-06 13:29 3.24082 -73.00332 38189 ft 462 kts 336°
2026-05-06 13:30 3.29926 -73.03020 38188 ft 462 kts 336°
2026-05-06 13:30 3.35735 -73.05687 38190 ft 462 kts 336°
2026-05-06 13:31 3.41579 -73.08354 38195 ft 461 kts 336°
2026-05-06 13:31 3.47416 -73.11031 38204 ft 461 kts 336°
2026-05-06 13:32 3.53249 -73.13709 38200 ft 461 kts 336°
2026-05-06 13:32 3.59085 -73.16380 38200 ft 461 kts 336°
2026-05-06 13:33 3.64915 -73.19057 38210 ft 461 kts 335°
2026-05-06 13:33 3.70753 -73.21737 38204 ft 461 kts 335°
2026-05-06 13:34 3.76593 -73.24419 38214 ft 462 kts 335°
2026-05-06 13:34 3.82438 -73.27102 38225 ft 462 kts 335°
2026-05-06 13:35 3.88288 -73.29782 38233 ft 462 kts 335°
2026-05-06 13:35 3.94141 -73.32467 38223 ft 463 kts 335°
2026-05-06 13:36 3.99960 -73.35139 38214 ft 463 kts 335°
2026-05-06 13:36 4.05501 -73.38393 38203 ft 462 kts 319°
2026-05-06 13:37 4.09696 -73.43219 38081 ft 464 kts 301°
2026-05-06 13:37 4.11402 -73.45995 37230 ft 472 kts 301°
2026-05-06 13:37 4.13087 -73.48781 36957 ft 465 kts 301°
2026-05-06 13:37 4.14761 -73.51571 36693 ft 470 kts 301°
2026-05-06 13:38 4.16447 -73.54386 36435 ft 473 kts 301°
2026-05-06 13:38 4.18140 -73.57211 36199 ft 474 kts 301°
2026-05-06 13:38 4.19847 -73.60051 35956 ft 474 kts 301°
2026-05-06 13:38 4.21553 -73.62880 35724 ft 475 kts 301°
2026-05-06 13:39 4.23328 -73.65678 35735 ft 476 kts 307°
2026-05-06 13:39 4.25467 -73.68207 35535 ft 477 kts 316°
2026-05-06 13:39 4.27855 -73.70482 34663 ft 483 kts 318°
2026-05-06 13:39 4.30336 -73.72780 33699 ft 488 kts 318°
2026-05-06 13:40 4.32858 -73.75098 32632 ft 493 kts 319°
2026-05-06 13:40 4.35407 -73.77435 31530 ft 499 kts 319°
2026-05-06 13:40 4.37973 -73.79791 30623 ft 501 kts 319°
2026-05-06 13:40 4.40544 -73.82159 29569 ft 502 kts 319°
2026-05-06 13:41 4.43117 -73.84535 28461 ft 503 kts 319°
2026-05-06 13:41 4.45656 -73.86886 27334 ft 505 kts 319°
2026-05-06 13:41 4.48235 -73.89274 26398 ft 502 kts 319°
2026-05-06 13:41 4.50796 -73.91643 25442 ft 500 kts 319°
2026-05-06 13:42 4.53328 -73.93986 25035 ft 487 kts 319°
2026-05-06 13:42 4.55763 -73.96244 24920 ft 466 kts 319°
2026-05-06 13:42 4.58083 -73.98428 24809 ft 449 kts 316°
2026-05-06 13:42 4.59997 -74.00829 24701 ft 435 kts 304°
2026-05-06 13:43 4.61364 -74.03480 24522 ft 423 kts 292°
2026-05-06 13:43 4.62311 -74.06247 24124 ft 417 kts 289°
2026-05-06 13:43 4.63202 -74.08980 23360 ft 409 kts 289°
2026-05-06 13:43 4.64077 -74.11678 22447 ft 404 kts 289°
2026-05-06 13:44 4.64941 -74.14342 21592 ft 399 kts 289°
2026-05-06 13:44 4.65798 -74.16972 20769 ft 394 kts 289°
2026-05-06 13:44 4.66635 -74.19536 19975 ft 389 kts 289°
2026-05-06 13:44 4.67471 -74.22102 19221 ft 385 kts 289°
2026-05-06 13:45 4.68297 -74.24637 18580 ft 377 kts 289°
2026-05-06 13:45 4.69860 -74.29432 17666 ft 351 kts 289°
2026-05-06 13:45 4.70612 -74.31739 17400 ft 347 kts 289°
2026-05-06 13:46 4.71360 -74.34028 16971 ft 343 kts 289°
2026-05-06 13:46 4.72104 -74.36293 16288 ft 341 kts 289°
2026-05-06 13:46 4.72838 -74.38536 15663 ft 337 kts 289°
2026-05-06 13:46 4.73707 -74.40698 15049 ft 333 kts 299°
2026-05-06 13:47 4.74983 -74.42603 14465 ft 327 kts 315°
2026-05-06 13:47 4.76640 -74.43991 14289 ft 305 kts 331°
2026-05-06 13:47 4.78553 -74.44801 13841 ft 294 kts 351°
2026-05-06 13:47 4.80554 -74.44936 13295 ft 285 kts 11°
2026-05-06 13:48 4.82425 -74.44428 12929 ft 271 kts 29°
2026-05-06 13:48 4.83977 -74.43446 12864 ft 260 kts 44°
2026-05-06 13:48 4.85159 -74.42134 12847 ft 245 kts 59°
2026-05-06 13:48 4.85900 -74.40669 12857 ft 229 kts 71°
2026-05-06 13:49 4.86395 -74.39178 12860 ft 222 kts 84°
2026-05-06 13:49 4.86343 -74.37652 12877 ft 220 kts 105°
2026-05-06 13:49 4.85705 -74.36266 12882 ft 221 kts 125°
2026-05-06 13:49 4.84760 -74.35020 12626 ft 227 kts 126°
2026-05-06 13:50 4.83807 -74.33771 12374 ft 222 kts 126°
2026-05-06 13:50 4.82892 -74.32564 12092 ft 214 kts 126°
2026-05-06 13:50 4.82001 -74.31387 11812 ft 210 kts 126°
2026-05-06 13:50 4.81126 -74.30230 11557 ft 207 kts 126°
2026-05-06 13:51 4.80260 -74.29086 11304 ft 205 kts 126°
2026-05-06 13:51 4.79400 -74.27949 11059 ft 204 kts 126°
2026-05-06 13:51 4.78545 -74.26819 10812 ft 202 kts 126°
2026-05-06 13:51 4.77709 -74.25715 10586 ft 191 kts 126°
2026-05-06 13:52 4.76951 -74.24715 10365 ft 169 kts 126°
2026-05-06 13:52 4.76262 -74.23803 10138 ft 160 kts 126°
2026-05-06 13:52 4.75601 -74.22931 9935 ft 156 kts 127°
2026-05-06 13:52 4.74946 -74.22065 9734 ft 154 kts 126°
2026-05-06 13:53 4.74311 -74.21227 9516 ft 152 kts 127°
2026-05-06 13:53 4.73673 -74.20383 9278 ft 152 kts 126°
2026-05-06 13:53 4.73030 -74.19534 9064 ft 154 kts 126°
2026-05-06 13:53 4.72382 -74.18677 8838 ft 154 kts 126°
2026-05-06 13:54 4.71736 -74.17823 8625 ft 154 kts 126°
2026-05-06 13:54 4.71093 -74.16965 8433 ft 154 kts 126°
2026-05-06 13:54 4.70665 -74.16401 8377 ft 141 kts 122°
2026-05-06 13:54 4.70168 -74.15742 8373 ft 94 kts 128°
2026-05-06 13:55 4.69863 -74.15344 8373 ft 54 kts 128°
2026-05-06 13:55 4.69739 -74.15144 8372 ft 25 kts 104°
2026-05-06 13:55 4.69718 -74.15035 8373 ft 14 kts 101°
2026-05-06 13:55 4.69711 -74.14931 8373 ft 16 kts 91°
2026-05-06 13:56 4.69745 -74.14830 8373 ft 16 kts 45°
2026-05-06 13:56 4.69837 -74.14759 8373 ft 17 kts 36°
2026-05-06 13:56 4.69936 -74.14685 8373 ft 18 kts 37°
2026-05-06 13:56 4.70028 -74.14613 8373 ft 12 kts 38°
2026-05-06 13:57 4.70021 -74.14544 8373 ft 12 kts 127°
2026-05-06 13:57 4.69967 -74.14474 8373 ft 13 kts 128°
2026-05-06 13:57 4.69912 -74.14430 8373 ft 8 kts 198°
2026-05-06 13:57 4.69887 -74.14455 8373 ft 3 kts 228°
2026-05-06 13:58 4.69883 -74.14460 8373 ft 0 kts 227°